Regional Weather Roundup
Issued by NWS

Home | Current Version | Previous Version | Graphics & Text | Print | Product List | Glossary On
Versions: 1 2 3 4 5 6 7 8 9 10 11 12 13 14 15 16 17 18 19 20 21 22 23 24 25 26 27 28 29 30 31 32 33 34 35 36 37 38 39 40 41 42 43 44 45 46 47 48 49 50
000
ASUS45 KPSR 271700
RWRAZ

ARIZONA HOURLY REGIONAL WEATHER ROUNDUP
NATIONAL WEATHER SERVICE PHOENIX AZ
1000 AM MST WED MAY 27 2015

NOTE: FAIR INDICATES FEW OR NO CLOUDS BELOW 12,000 FEET WITH NO
SIGNIFICANT WEATHER AND/OR OBSTRUCTIONS TO VISIBILITY.

AZZ001>003-036-271800-
NORTHWEST ARIZONA

CITY           SKY/WX    TMP DP  RH WIND       PRES   REMARKS
KINGMAN        MOSUNNY   78  29  16 W6        30.02S
$$

AZZ004>008-015-016-018-271800-
NORTH CENTRAL ARIZONA

CITY           SKY/WX    TMP DP  RH WIND       PRES   REMARKS
GRAND CANYON   MOSUNNY   65  22  19 NW8       30.20S
PRESCOTT       CLOUDY    68  33  27 CALM      30.12S
FLAGSTAFF      NOT AVBL
PAGE           PTSUNNY   71  43  36 VRB5      30.09F
$$

AZZ009>014-017-271800-
NORTHEAST ARIZONA

CITY           SKY/WX    TMP DP  RH WIND       PRES   REMARKS
WINSLOW        NOT AVBL
SAINT JOHNS    PTSUNNY   72  30  21 VRB5      30.14F
WINDOW ROCK    SUNNY     69  29  22 S12       30.20F
$$

AZZ023-271800-
GREATER PHOENIX AREA

CITY           SKY/WX    TMP DP  RH WIND       PRES   REMARKS
PHOENIX        CLOUDY    84  36  18 VRB5      29.91S
GLENDALE       PTSUNNY   81  39  22 NE3       29.94S
LUKE AFB       CLOUDY    80  38  22 CALM      29.92S
DEER VALLEY    CLOUDY    80  37  21 S3        29.93S
SCOTTSDALE     CLOUDY    81  40  23 S3        29.95S
MESA-FALCON    PTSUNNY   79  37  22 VRB5      29.93S
MESA-GATEWAY   PTSUNNY   79  39  24 MISG      29.95S
CHANDLER       PTSUNNY   79  41  25 CALM      29.93F
$$

AZZ027-028-271800-
SOUTHWEST MARICOPA COUNTY AND PINAL COUNTY

CITY           SKY/WX    TMP DP  RH WIND       PRES   REMARKS
CASA GRANDE    CLOUDY    81  37  21 CALM      29.93F
GILA BEND      MOSUNNY   85  32  15 VRB3      29.90F
$$

AZZ503-504-507>509-271800-
SOUTHEAST ARIZONA

CITY           SKY/WX    TMP DP  RH WIND       PRES   REMARKS
TUCSON         PTSUNNY   82  31  15 SE7       30.01F
DAVIS-MONTHAN  MOSUNNY   82  32  16 NE1       29.99F
RYAN FIELD       N/A     82  37  20 NE7       30.00F
NOGALES        MOSUNNY   81  20  10 S9G17     30.06F
SIERRA VISTA   MOSUNNY   77  11   8 SE15      30.11F
SAFFORD        CLOUDY    80  32  17 S7        30.02F
$$

AZZ020-021-025-026-031-271800-
SOUTHWEST ARIZONA

CITY           SKY/WX    TMP DP  RH WIND       PRES   REMARKS
YUMA           NOT AVBL
$$

CAZ031-033-041-043-047-048-061-271800-
SOUTHERN CALIFORNIA

CITY           SKY/WX    TMP DP  RH WIND       PRES   REMARKS
DOWNTOWN L.A.  CLOUDY    63  54  72 CALM      30.00S
L.A. AIRPORT   CLOUDY    60  54  80 SW6       30.01F
SAN DIEGO      CLOUDY    64  54  69 NW7       30.02R
BURBANK        CLOUDY    61  52  72 SW5       29.99F
ONTARIO        CLOUDY    62  52  69 W7        30.00R HAZE
RIVERSIDE      CLOUDY    62  53  72 W3        30.00R
PALM SPRINGS   SUNNY     81  48  31 CALM      29.89F
EL CENTRO NAS  PTSUNNY   81  57  43 W8        29.88F
IMPERIAL       SUNNY     79  57  46 VRB6      29.86F
BLYTHE         MOSUNNY   84  41  21 E3        29.89S
$$

NVZ020-UTZ003-271800-
SOUTHERN NEVADA-UTAH

CITY           SKY/WX    TMP DP  RH WIND       PRES   REMARKS
LAS VEGAS      NOT AVBL
SALT LAKE CITY CLOUDY    59  51  75 N9        30.09F
$$

NMZ009-TXZ055-271800-
NEW MEXICO-WEST TEXAS

CITY           SKY/WX    TMP DP  RH WIND       PRES   REMARKS
ALBUQUERQUE    PTSUNNY   70  40  33 SW5       30.17F
EL PASO        PTSUNNY   83  26  12 S5        30.07F
$$


........................KEY........................
SKY/WX - SKY CONDITION/WEATHER
TMP    - TEMPERATURE IN FAHRENHEIT
DP     - DEW POINT IN FAHRENHEIT
RH     - RELATIVE HUMIDITY IN PERCENT
WIND   - DIRECTION AND SPEED IN MILES PER HOUR (MPH)
VRB    - VARIABLE WIND DIRECTION
PRES   - MEAN SEA LEVEL PRESSURE IN INCHES OF MERCURY
         F - FALLING PRESSURE   R - RISING PRESSURE
         S - STEADY PRESSURE
VSB    - VISIBILITY IN MILES
HX     - HEAT INDEX IN FAHRENHEIT
WCI    - WIND CHILL INDEX IN FAHRENHEIT
TC     - TEMPERATURE IN CELSIUS WHICH IS ALSO KNOWN AS
         TEMPERATURE IN CENTIGRADE
AFB    - AIR FORCE BASE
         LUKE AFB IS LUKE AIR FORCE BASE
         DAVIS-MONTHAN IS DAVIS-MONTHAN AIR FORCE BASE
NAS    - NAVAL AIR STATION
         EL CENTRO NAS IS EL CENTRO NAVAL AIR STATION
N/A    - NOT AVAILABLE




USA.gov is the U.S. government's official web portal to all federal, state and local government web resources and services.